ITY752 LIRF-LICR

Flight info

Callsign ITY752
Flight time 1h 3m
Altitude 33000
Route SOSA5A RIFFI TAGEL VACCE Q58 FOSQA FOSQA2X
Aircraft A20N/M-SADE2E3FGHIJ3J4J5M1RWXYZ/LB1

Departure

Time 2026-04-16 09:17
Airport Rome–Fiumicino Leonardo da Vinci International Airport (LIRF)

Arrival

Time 2026-04-16 10:20
Airport Reggio Calabria Airport (LICR)
Time Latitude Longitude Altitude Speed Heading
2026-04-16 08:00 41.79829 12.25550 17 ft 0 kts 115°
2026-04-16 09:03 41.79832 12.25541 6 ft 2 kts 114°
2026-04-16 09:03 41.79837 12.25520 9 ft 2 kts 105°
2026-04-16 09:04 41.79840 12.25499 19 ft 2 kts 87°
2026-04-16 09:04 41.79835 12.25478 19 ft 2 kts 52°
2026-04-16 09:04 41.79823 12.25464 21 ft 2 kts 28°
2026-04-16 09:04 41.79818 12.25461 21 ft 0 kts 25°
2026-04-16 09:09 41.79833 12.25471 14 ft 9 kts 25°
2026-04-16 09:09 41.79892 12.25508 19 ft 9 kts 25°
2026-04-16 09:09 41.79947 12.25543 19 ft 7 kts 25°
2026-04-16 09:09 41.79992 12.25578 18 ft 7 kts 53°
2026-04-16 09:10 41.79991 12.25634 17 ft 6 kts 106°
2026-04-16 09:10 41.79974 12.25687 17 ft 6 kts 115°
2026-04-16 09:10 41.79955 12.25741 17 ft 7 kts 116°
2026-04-16 09:10 41.79933 12.25805 17 ft 7 kts 105°
2026-04-16 09:11 41.79948 12.25862 18 ft 6 kts 43°
2026-04-16 09:11 41.80002 12.25903 17 ft 14 kts 26°
2026-04-16 09:11 41.80120 12.25977 17 ft 24 kts 25°
2026-04-16 09:11 41.80285 12.26084 18 ft 29 kts 25°
2026-04-16 09:12 41.80449 12.26177 21 ft 20 kts 17°
2026-04-16 09:12 41.80539 12.26282 19 ft 18 kts 63°
2026-04-16 09:12 41.80546 12.26302 19 ft 18 kts 66°
2026-04-16 09:13 41.80582 12.26425 19 ft 18 kts 70°
2026-04-16 09:13 41.80623 12.26584 19 ft 18 kts 69°
2026-04-16 09:13 41.80668 12.26747 19 ft 19 kts 69°
2026-04-16 09:14 41.80707 12.26885 17 ft 13 kts 69°
2026-04-16 09:14 41.80734 12.26981 19 ft 9 kts 69°
2026-04-16 09:14 41.80775 12.27036 16 ft 8 kts 22°
2026-04-16 09:14 41.80828 12.27031 18 ft 8 kts 345°
2026-04-16 09:15 41.80881 12.27008 16 ft 8 kts 340°
2026-04-16 09:15 41.80933 12.26980 17 ft 8 kts 333°
2026-04-16 09:15 41.80953 12.26917 16 ft 7 kts 264°
2026-04-16 09:15 41.80941 12.26864 16 ft 2 kts 250°
2026-04-16 09:16 41.80940 12.26861 16 ft 0 kts 250°
2026-04-16 09:16 41.80914 12.26761 17 ft 42 kts 250°
2026-04-16 09:16 41.80733 12.26103 23 ft 109 kts 250°
2026-04-16 09:17 41.80401 12.24887 20 ft 166 kts 250°
2026-04-16 09:17 41.80022 12.23400 545 ft 163 kts 252°
2026-04-16 09:17 41.79664 12.21964 1163 ft 164 kts 249°
2026-04-16 09:17 41.79333 12.20509 1811 ft 166 kts 262°
2026-04-16 09:18 41.79250 12.18852 2356 ft 190 kts 268°
2026-04-16 09:18 41.79210 12.16998 2909 ft 207 kts 269°
2026-04-16 09:18 41.79029 12.15051 3628 ft 216 kts 248°
2026-04-16 09:18 41.78069 12.13490 4451 ft 227 kts 216°
2026-04-16 09:19 41.76798 12.12128 5266 ft 238 kts 224°
2026-04-16 09:19 41.76032 12.11085 6006 ft 235 kts 226°
2026-04-16 09:19 41.74421 12.09178 7387 ft 235 kts 216°
2026-04-16 09:19 41.73555 12.08263 7922 ft 239 kts 220°
2026-04-16 09:20 41.72368 12.06712 8866 ft 239 kts 225°
2026-04-16 09:20 41.71154 12.05201 9776 ft 241 kts 212°
2026-04-16 09:20 41.69039 12.04317 10746 ft 245 kts 181°
2026-04-16 09:20 41.67883 12.04277 11257 ft 248 kts 178°
2026-04-16 09:21 41.66148 12.04304 12036 ft 253 kts 177°
2026-04-16 09:21 41.64365 12.04339 12842 ft 258 kts 177°
2026-04-16 09:21 41.62577 12.04357 13637 ft 262 kts 179°
2026-04-16 09:21 41.60760 12.03842 14337 ft 271 kts 209°
2026-04-16 09:22 41.59423 12.02130 15020 ft 274 kts 236°
2026-04-16 09:22 41.58417 11.99963 15764 ft 276 kts 232°
2026-04-16 09:22 41.56908 11.98400 16414 ft 281 kts 199°
2026-04-16 09:22 41.54941 11.98099 16748 ft 296 kts 167°
2026-04-16 09:23 41.53049 11.99255 17034 ft 310 kts 136°
2026-04-16 09:23 41.51781 12.01623 17338 ft 323 kts 108°
2026-04-16 09:23 41.51316 12.04619 17659 ft 339 kts 95°
2026-04-16 09:23 41.51002 12.07838 18056 ft 356 kts 96°
2026-04-16 09:24 41.50587 12.11127 18625 ft 365 kts 99°
2026-04-16 09:24 41.50023 12.14462 19243 ft 372 kts 108°
2026-04-16 09:24 41.48704 12.17446 19906 ft 380 kts 128°
2026-04-16 09:24 41.46861 12.20015 20594 ft 384 kts 133°
2026-04-16 09:25 41.44957 12.22505 21280 ft 388 kts 133°
2026-04-16 09:25 41.43013 12.25078 21964 ft 391 kts 133°
2026-04-16 09:25 41.41122 12.27624 22624 ft 394 kts 132°
2026-04-16 09:25 41.39195 12.30245 23278 ft 398 kts 132°
2026-04-16 09:26 41.37250 12.32905 23865 ft 401 kts 132°
2026-04-16 09:26 41.35296 12.35586 24362 ft 405 kts 132°
2026-04-16 09:26 41.33332 12.38284 24878 ft 408 kts 132°
2026-04-16 09:26 41.31348 12.41007 25389 ft 411 kts 132°
2026-04-16 09:27 41.29350 12.43750 25924 ft 413 kts 132°
2026-04-16 09:27 41.27352 12.46491 26412 ft 415 kts 132°
2026-04-16 09:27 41.25337 12.49253 26882 ft 418 kts 132°
2026-04-16 09:27 41.23261 12.52014 27342 ft 422 kts 135°
2026-04-16 09:28 41.20976 12.54478 27784 ft 426 kts 141°
2026-04-16 09:28 41.18536 12.56745 28226 ft 429 kts 144°
2026-04-16 09:28 41.16024 12.58913 28664 ft 433 kts 145°
2026-04-16 09:28 41.13467 12.61045 29090 ft 435 kts 146°
2026-04-16 09:29 41.10922 12.63150 29500 ft 438 kts 146°
2026-04-16 09:29 41.08330 12.65303 29907 ft 440 kts 146°
2026-04-16 09:29 41.05723 12.67484 30289 ft 443 kts 145°
2026-04-16 09:29 41.03114 12.69681 30608 ft 446 kts 145°
2026-04-16 09:30 41.00496 12.71895 30916 ft 448 kts 145°
2026-04-16 09:30 40.97858 12.74130 31266 ft 450 kts 145°
2026-04-16 09:30 40.95241 12.76347 31700 ft 449 kts 145°
2026-04-16 09:30 40.92607 12.78576 32212 ft 446 kts 145°
2026-04-16 09:31 40.90005 12.80774 32738 ft 443 kts 145°
2026-04-16 09:31 40.87415 12.82962 33047 ft 445 kts 145°
2026-04-16 09:31 40.84785 12.85181 33098 ft 445 kts 145°
2026-04-16 09:32 40.79573 12.89572 33103 ft 443 kts 145°
2026-04-16 09:32 40.74390 12.93930 33085 ft 442 kts 145°
2026-04-16 09:33 40.69225 12.98265 33086 ft 442 kts 145°
2026-04-16 09:33 40.64029 13.02617 33102 ft 442 kts 145°
2026-04-16 09:34 40.58806 13.06983 33081 ft 442 kts 145°
2026-04-16 09:34 40.53636 13.11297 33084 ft 442 kts 145°
2026-04-16 09:35 40.48445 13.15621 33088 ft 440 kts 145°
2026-04-16 09:35 40.43272 13.19921 33096 ft 439 kts 145°
2026-04-16 09:36 40.38132 13.24187 33080 ft 439 kts 145°
2026-04-16 09:36 40.32975 13.28459 33090 ft 439 kts 144°
2026-04-16 09:37 40.28093 13.33187 33079 ft 436 kts 137°
2026-04-16 09:37 40.23474 13.38350 33086 ft 436 kts 136°
2026-04-16 09:38 40.18904 13.43565 33084 ft 436 kts 136°
2026-04-16 09:38 40.14360 13.48774 33082 ft 436 kts 136°
2026-04-16 09:39 40.09767 13.54030 33081 ft 437 kts 136°
2026-04-16 09:39 40.05212 13.59225 33081 ft 437 kts 136°
2026-04-16 09:40 40.00623 13.64446 33076 ft 437 kts 136°
2026-04-16 09:40 39.96037 13.69655 33080 ft 437 kts 136°
2026-04-16 09:41 39.91437 13.74870 33081 ft 437 kts 136°
2026-04-16 09:41 39.86841 13.80071 33077 ft 437 kts 136°
2026-04-16 09:42 39.82244 13.85264 33066 ft 437 kts 136°
2026-04-16 09:42 39.77680 13.90411 33072 ft 435 kts 137°
2026-04-16 09:43 39.73114 13.95548 33079 ft 434 kts 137°
2026-04-16 09:43 39.68544 14.00682 33079 ft 434 kts 137°
2026-04-16 09:44 39.63969 14.05812 33071 ft 434 kts 137°
2026-04-16 09:44 39.59443 14.10879 33077 ft 433 kts 138°
2026-04-16 09:45 39.54866 14.15994 33072 ft 432 kts 138°
2026-04-16 09:45 39.50305 14.21080 33072 ft 432 kts 138°
2026-04-16 09:46 39.45794 14.26102 32701 ft 428 kts 139°
2026-04-16 09:46 39.43512 14.28639 32442 ft 427 kts 139°
2026-04-16 09:46 39.41282 14.31116 32180 ft 426 kts 139°
2026-04-16 09:46 39.39044 14.33601 31932 ft 425 kts 139°
2026-04-16 09:47 39.36792 14.36099 31666 ft 424 kts 139°
2026-04-16 09:47 39.34567 14.38565 31420 ft 423 kts 139°
2026-04-16 09:47 39.32332 14.41040 31161 ft 420 kts 139°
2026-04-16 09:47 39.30124 14.43481 30911 ft 418 kts 139°
2026-04-16 09:48 39.27921 14.45917 30669 ft 417 kts 140°
2026-04-16 09:48 39.25711 14.48356 30420 ft 416 kts 140°
2026-04-16 09:48 39.23519 14.50775 30164 ft 415 kts 140°
2026-04-16 09:48 39.21314 14.53205 29895 ft 414 kts 140°
2026-04-16 09:49 39.19127 14.55612 29617 ft 412 kts 140°
2026-04-16 09:49 39.16980 14.57974 29329 ft 411 kts 140°
2026-04-16 09:49 39.14784 14.60388 29043 ft 409 kts 140°
2026-04-16 09:49 39.12625 14.62759 28775 ft 407 kts 139°
2026-04-16 09:50 39.10499 14.65092 28498 ft 406 kts 139°
2026-04-16 09:50 39.08336 14.67465 28242 ft 403 kts 139°
2026-04-16 09:50 39.06231 14.69771 27975 ft 400 kts 139°
2026-04-16 09:50 39.04113 14.72089 27712 ft 398 kts 139°
2026-04-16 09:51 39.02022 14.74377 27445 ft 396 kts 139°
2026-04-16 09:51 38.99907 14.76689 27182 ft 395 kts 139°
2026-04-16 09:51 38.97824 14.78964 26925 ft 394 kts 139°
2026-04-16 09:51 38.95731 14.81249 26665 ft 392 kts 139°
2026-04-16 09:52 38.93661 14.83506 26416 ft 391 kts 139°
2026-04-16 09:52 38.91581 14.85772 26159 ft 390 kts 139°
2026-04-16 09:52 38.89517 14.88020 25910 ft 388 kts 139°
2026-04-16 09:52 38.87459 14.90259 25662 ft 387 kts 138°
2026-04-16 09:53 38.85444 14.92448 25309 ft 381 kts 138°
2026-04-16 09:53 38.83411 14.94655 24791 ft 381 kts 137°
2026-04-16 09:53 38.81400 14.96837 24246 ft 381 kts 137°
2026-04-16 09:53 38.79378 14.99031 23693 ft 381 kts 137°
2026-04-16 09:54 38.77344 15.01237 23058 ft 381 kts 137°
2026-04-16 09:54 38.75320 15.03431 22477 ft 379 kts 138°
2026-04-16 09:54 38.73308 15.05608 21909 ft 377 kts 138°
2026-04-16 09:54 38.71307 15.07772 21370 ft 375 kts 138°
2026-04-16 09:55 38.69316 15.09920 20826 ft 373 kts 138°
2026-04-16 09:55 38.67339 15.12048 20291 ft 370 kts 138°
2026-04-16 09:55 38.65391 15.14143 19743 ft 369 kts 138°
2026-04-16 09:55 38.63412 15.16270 19187 ft 367 kts 139°
2026-04-16 09:56 38.61479 15.18347 18640 ft 366 kts 139°
2026-04-16 09:56 38.59514 15.20456 18052 ft 365 kts 139°
2026-04-16 09:56 38.57600 15.22508 17485 ft 362 kts 139°
2026-04-16 09:56 38.55680 15.24565 16944 ft 359 kts 139°
2026-04-16 09:57 38.53774 15.26607 16416 ft 356 kts 139°
2026-04-16 09:57 38.51880 15.28629 15861 ft 353 kts 139°
2026-04-16 09:57 38.49902 15.30467 15314 ft 352 kts 145°
2026-04-16 09:57 38.47850 15.32159 14810 ft 350 kts 146°
2026-04-16 09:58 38.45800 15.33815 14289 ft 347 kts 147°
2026-04-16 09:58 38.43822 15.35571 13746 ft 345 kts 137°
2026-04-16 09:58 38.42334 15.37926 13191 ft 340 kts 118°
2026-04-16 09:58 38.41312 15.40645 12665 ft 337 kts 113°
2026-04-16 09:59 38.40402 15.43367 12148 ft 334 kts 112°
2026-04-16 09:59 38.39482 15.46077 11643 ft 331 kts 116°
2026-04-16 09:59 38.38170 15.48466 11138 ft 330 kts 135°
2026-04-16 09:59 38.36264 15.50070 10637 ft 329 kts 153°
2026-04-16 10:00 38.34172 15.51195 10257 ft 322 kts 157°
2026-04-16 10:00 38.32159 15.52191 10176 ft 308 kts 158°
2026-04-16 10:00 38.30179 15.53170 10030 ft 295 kts 157°
2026-04-16 10:01 38.26351 15.54626 9343 ft 288 kts 169°
2026-04-16 10:01 38.24382 15.54966 8943 ft 286 kts 171°
2026-04-16 10:01 38.22421 15.55274 8589 ft 282 kts 171°
2026-04-16 10:01 38.20478 15.55583 8180 ft 280 kts 171°
2026-04-16 10:02 38.18553 15.55892 7766 ft 279 kts 171°
2026-04-16 10:02 38.16649 15.56200 7433 ft 275 kts 171°
2026-04-16 10:02 38.14743 15.56508 6995 ft 274 kts 171°
2026-04-16 10:02 38.12884 15.56808 6763 ft 265 kts 171°
2026-04-16 10:03 38.11090 15.57097 6588 ft 255 kts 171°
2026-04-16 10:03 38.09331 15.57383 6166 ft 256 kts 171°
2026-04-16 10:03 38.07559 15.57672 5785 ft 256 kts 171°
2026-04-16 10:03 38.05807 15.57956 5529 ft 250 kts 171°
2026-04-16 10:04 38.04119 15.58229 5374 ft 240 kts 171°
2026-04-16 10:04 38.02495 15.58492 5264 ft 230 kts 171°
2026-04-16 10:04 38.00950 15.58742 5041 ft 224 kts 171°
2026-04-16 10:04 37.99424 15.58990 4783 ft 218 kts 171°
2026-04-16 10:05 37.97939 15.59231 4498 ft 212 kts 171°
2026-04-16 10:05 37.96501 15.59464 4222 ft 205 kts 171°
2026-04-16 10:05 37.95109 15.59689 3936 ft 196 kts 171°
2026-04-16 10:05 37.93792 15.59902 3707 ft 186 kts 171°
2026-04-16 10:06 37.92576 15.60267 3518 ft 172 kts 152°
2026-04-16 10:06 37.91762 15.61231 3235 ft 157 kts 115°
2026-04-16 10:06 37.91599 15.62526 2869 ft 150 kts 78°
2026-04-16 10:06 37.92073 15.63650 2664 ft 146 kts 44°
2026-04-16 10:07 37.92956 15.64223 2689 ft 142 kts 11°
2026-04-16 10:07 37.93921 15.64083 2666 ft 142 kts 337°
2026-04-16 10:07 37.94746 15.63387 2488 ft 145 kts 327°
2026-04-16 10:07 37.95704 15.62974 1988 ft 149 kts
2026-04-16 10:08 37.96713 15.63232 1638 ft 144 kts 18°
2026-04-16 10:08 37.97628 15.63602 1495 ft 136 kts 19°
2026-04-16 10:08 37.98537 15.63981 1534 ft 137 kts 19°
2026-04-16 10:08 37.99428 15.64351 1554 ft 137 kts 21°
2026-04-16 10:09 38.00345 15.64704 1596 ft 141 kts 19°
2026-04-16 10:09 38.01270 15.65078 1436 ft 141 kts 20°
2026-04-16 10:09 38.02185 15.65508 1204 ft 134 kts 26°
2026-04-16 10:09 38.02746 15.65828 1154 ft 134 kts 25°
2026-04-16 10:10 38.03643 15.66190 1002 ft 138 kts 14°
2026-04-16 10:10 38.04626 15.66257 635 ft 141 kts 355°
2026-04-16 10:10 38.05859 15.65901 250 ft 133 kts 343°
2026-04-16 10:10 38.06431 15.65627 167 ft 131 kts 332°
2026-04-16 10:11 38.07205 15.65117 143 ft 118 kts 341°
2026-04-16 10:11 38.07996 15.64725 799 ft 139 kts 336°
2026-04-16 10:11 38.08985 15.64164 1448 ft 162 kts 339°
2026-04-16 10:11 38.10031 15.63568 2182 ft 178 kts 333°
2026-04-16 10:12 38.11167 15.62666 2679 ft 202 kts 319°
2026-04-16 10:12 38.11865 15.61126 3251 ft 213 kts 274°
2026-04-16 10:12 38.11598 15.59305 3766 ft 212 kts 240°
2026-04-16 10:12 38.10558 15.58081 3925 ft 205 kts 197°
2026-04-16 10:13 38.09179 15.58112 3937 ft 204 kts 154°
2026-04-16 10:13 38.08089 15.59259 3948 ft 207 kts 132°
2026-04-16 10:13 38.07044 15.60502 3932 ft 208 kts 153°
2026-04-16 10:13 38.05623 15.60752 3958 ft 212 kts 185°
2026-04-16 10:14 38.04160 15.60383 4073 ft 215 kts 193°
2026-04-16 10:14 38.02728 15.59848 4313 ft 214 kts 194°
2026-04-16 10:14 38.01340 15.59704 4837 ft 194 kts 164°
2026-04-16 10:14 38.00168 15.60604 4785 ft 206 kts 130°
2026-04-16 10:15 37.99502 15.62223 4921 ft 206 kts 104°
2026-04-16 10:15 37.99461 15.63929 5435 ft 181 kts 82°
2026-04-16 10:15 38.00021 15.65322 4908 ft 195 kts 37°
2026-04-16 10:15 38.01464 15.65584 3779 ft 226 kts 359°
2026-04-16 10:16 38.02906 15.65605 3396 ft 181 kts
2026-04-16 10:16 38.04046 15.65798 3032 ft 163 kts 11°
2026-04-16 10:16 38.05210 15.65827 2298 ft 170 kts 356°
2026-04-16 10:16 38.06344 15.65486 1536 ft 176 kts 348°
2026-04-16 10:17 38.07451 15.65026 1145 ft 153 kts 335°
2026-04-16 10:17 38.08300 15.64390 898 ft 129 kts 311°
2026-04-16 10:17 38.08475 15.63383 744 ft 124 kts 249°
2026-04-16 10:17 38.07784 15.62790 471 ft 130 kts 181°
2026-04-16 10:18 38.06950 15.63075 403 ft 118 kts 163°
2026-04-16 10:18 38.06182 15.63408 621 ft 118 kts 159°
2026-04-16 10:18 38.05351 15.63740 751 ft 129 kts 164°
2026-04-16 10:18 38.04505 15.64108 972 ft 128 kts 150°
2026-04-16 10:19 38.03969 15.64922 988 ft 118 kts 107°
2026-04-16 10:19 38.04095 15.65878 927 ft 115 kts 46°
2026-04-16 10:19 38.04872 15.66131 705 ft 125 kts 359°
2026-04-16 10:19 38.05747 15.65970 401 ft 129 kts 342°
2026-04-16 10:20 38.06578 15.65511 110 ft 131 kts 333°
2026-04-16 10:20 38.07299 15.65034 64 ft 75 kts 333°
2026-04-16 10:20 38.07603 15.64840 59 ft 45 kts 332°
2026-04-16 10:20 38.07863 15.64672 60 ft 31 kts 334°
2026-04-16 10:21 38.08013 15.64585 68 ft 16 kts 339°
2026-04-16 10:21 38.08089 15.64534 67 ft 3 kts 282°
2026-04-16 10:21 38.08081 15.64531 60 ft 1 kts 177°
2026-04-16 10:21 38.08071 15.64538 64 ft 3 kts 153°
2026-04-16 10:22 38.08030 15.64564 65 ft 11 kts 153°
2026-04-16 10:22 38.07939 15.64622 68 ft 16 kts 153°
2026-04-16 10:22 38.07836 15.64688 62 ft 17 kts 153°
2026-04-16 10:22 38.07727 15.64757 64 ft 17 kts 153°
2026-04-16 10:23 38.07618 15.64827 62 ft 18 kts 153°
2026-04-16 10:23 38.07504 15.64901 62 ft 18 kts 148°
2026-04-16 10:23 38.07406 15.64972 61 ft 15 kts 150°
2026-04-16 10:23 38.07316 15.65036 62 ft 13 kts 145°
2026-04-16 10:24 38.07299 15.65095 66 ft 4 kts 89°
2026-04-16 10:24 38.07304 15.65123 66 ft 4 kts 72°
2026-04-16 10:24 38.07320 15.65175 58 ft 8 kts 66°
2026-04-16 10:24 38.07342 15.65237 60 ft 6 kts 66°
2026-04-16 10:25 38.07354 15.65280 58 ft 4 kts 66°
2026-04-16 10:25 38.07362 15.65297 60 ft 0 kts 52°